Flag for Canada Weather past 2 weeks in Kuujjuaq, Quebec, Canada

Now
30 °F

Snow flurries. Overcast.


Feels Like: 25 °F
Forecast: 21 / 31 °F
Wind: 5 mph from Northwest

Location: Kuujjuaq

Current Time: Oct 1, 2014 at 2:27:13 PM

Latest Report: Oct 1, 2014 at 1:00 PM


Visibility: 15 mi

Pressure: 30.24 "Hg

Humidity: 59%

Dew point: 18 °F

Location of KuujjuaqLocation

Historic Weather in Kuujjuaq — Graph

°F

Kuujjuaq temperature yesterday

Maximum temperature yesterday: 37 °F (at 10:00 AM)
Minimum temperature yesterday: 28 °F (at 6:00 PM)
Average temperature yesterday: 32 °F

Past Weeks' High & Low Weather Summary

 TemperatureHumidityPressure
High52 °F (Sep 16, 1:00 PM)100% (Sep 17, 7:00 AM)30.24 "Hg (Sep 17, 7:00 AM)
Low23 °F (Oct 1, 2:00 AM)5% (Sep 23, 11:00 AM)29.29 "Hg (Sep 20, 1:00 PM)
Average36 °F80%29.79 "Hg
* Reported Sep 16 1:00 PM — Oct 1 1:00 PM, Kuujjuaq, Weather by CustomWeather, © 2014

Note: Actual official high and low records may vary slightly from our data, if they occured in-between our weather recording intervals... More about our weather records

Advertising

Kuujjuaq weather history for previous 24 hours

 ConditionsComfort  
Time TempWeatherWind HumidityBarometerVisibility
1:00 PM
Oct 1
30 °FSnow flurries. Overcast.5 mph59%30.24 "Hg15 mi
12:00 PM30 °FSnow flurries. Overcast.9 mph55%30.24 "Hg15 mi
11:00 AM30 °FSnow flurries. Overcast.13 mph51%30.24 "Hg15 mi
10:00 AM30 °FSnow flurries. Overcast.12 mph47%30.24 "Hg15 mi
9:00 AM28 °FMostly cloudy.13 mph51%30.22 "Hg15 mi
8:00 AM28 °FMostly cloudy.7 mph51%30.22 "Hg15 mi
7:00 AM25 °FPartly cloudy.6 mph59%30.20 "Hg15 mi
6:00 AM25 °FPassing clouds.9 mph63%30.19 "Hg15 mi
5:00 AM25 °FPassing clouds.7 mph69%30.17 "Hg15 mi
4:00 AM25 °FPassing clouds.7 mph69%30.16 "Hg15 mi
3:00 AM23 °FPassing clouds.7 mph74%30.16 "Hg15 mi
2:00 AM23 °FPassing clouds.9 mph68%30.14 "Hg15 mi
1:00 AM25 °FPassing clouds.9 mph59%30.12 "Hg15 mi
12:00 AM28 °FPassing clouds.15 mph55%30.11 "Hg15 mi
11:00 PM
Sep 30
28 °FOvercast.8 mph64%30.09 "Hg15 mi
10:00 PM28 °FLight snow. Overcast.14 mph64%30.08 "Hg12 mi
9:00 PM28 °FPassing clouds.8 mph59%30.07 "Hg15 mi
8:00 PM28 °FPassing clouds.14 mph59%30.05 "Hg15 mi
7:00 PM30 °FScattered showers. Partly sunny.12 mph64%30.02 "Hg15 mi
6:00 PM28 °FSnow flurries. Partly sunny.8 mph74%30.00 "Hg15 mi
5:00 PM30 °FScattered clouds.14 mph64%29.96 "Hg15 mi
4:00 PM30 °FSnow flurries. Broken clouds.12 mph64%29.92 "Hg15 mi
3:00 PM30 °FSnow flurries. Mostly cloudy.16 mph64%29.88 "Hg10 mi
2:00 PM30 °FSnow flurries. Mostly cloudy.18 mph69%29.83 "Hg10 mi
Weather by CustomWeather, © 2014

See weather overviewHow to use our weather pages